Weather in Parbig

Russia / Tomsk District     57°13′47″N   81°24′26″E
temp.,
°C
wind,
m/s
gust,
m/s
humid.,
%
clouds,
%
prec.,
mm/h
press.,
hPa
HPBL,
m
18 may, tue
tue1801:00+14s31193100 1.3 1006285
04:00+13s289887 4.4 1002263
07:00+14nw51091100 4.6 1002935
10:00+16nw51078100 0.1 10041081
13:00+12n3791100 0.8 1007600
16:00+11ne3585100 0.1 1009747
19:00+10ne3684100 0.1 1010578
22:00+9ne3887100 0.1 1010599
19 may, wed
wed1901:00+8n3889100 0.1 1011277
04:00+5nne411755 0.0 1012357
07:00+5nne410625 0.0 1013360
10:00+9nne573843 0.0 10131229
13:00+11n573012 0.0 10142114
16:00+11n5827100 0.0 10142906
19:00+10n573395 0.0 10142825
22:00+6n3945100 0.0 1015440
20 may, thu
thu2001:00+4n4947100 0.0 1017565
04:000n310605 0.0 1017399
07:00+1n410551 0.0 1019528
10:00+5n5736100 0.0 10192249
13:00+8n5729100 0.0 10192601
16:00+10n462767 0.0 10182432
19:00+10n4631100 0.0 10202117
22:00+5nw2354100 0.0 102139
21 may, fri
fri2101:00+3nw2259100 0.0 102227
04:00+2wnw2261100 0.0 102228
07:00+4wsw135660 0.0 1023102
10:00+10wsw3440100 0.0 1023926
13:00+13wsw4632100 0.0 10221618
16:00+14wsw5734100 0.0 10211773
19:00+10wsw51164100 0.1 1020829
22:00+9sw5158593 0.8 1017619
22 may, sat
sat2201:00+11wsw61889100 1.7 1014629
04:00+11w4149596 1.9 1013417
07:00+13w3119420 2.0 1013323
10:00+19nw4873100 0.0 1014630
13:00+22nnw695115 0.0 10151745
16:00+24nnw58435 0.0 10161804
19:00+22nne47485 0.0 10181365
22:00+15ne127197 0.0 101911